Regional Weather Roundup
Issued by NWS

Home | Current Version | Previous Version | Text Only | Print | Product List | Glossary On
Versions: 1 2 3 4 5 6 7 8 9 10 11 12 13 14 15 16 17 18 19 20 21 22 23 24 25 26 27 28 29 30 31 32 33 34 35 36 37 38 39 40 41 42 43 44 45 46 47 48 49 50
000
ASUS45 KTFX 010019
RWRMT
MONTANA HOURLY WEATHER ROUNDUP
NATIONAL WEATHER SERVICE GREAT FALLS MT
619 PM MDT TUE SEP 30 2014

NOTE: "FAIR" INDICATES FEW OR NO CLOUDS BELOW 12000 FEET WITH NO
SIGNIFICANT WEATHER AND/OR OBSTRUCTIONS TO VISIBILITY.

* THESE STATIONS ARE NOT UNDER NWS QUALITY CONTROL. THEY DO NOT
   REPORT WEATHER SUCH AS PRECIPITATION OR FOG.

MTZ001>007-043-010100-
WEST OF THE DIVIDE
CITY           SKY/WX    TMP DP  RH WIND       PRES   REMARKS
KALISPELL      LGT RAIN  54  39  57 W10       29.85R
MISSOULA       MOCLDY    52  39  61 N9        29.94R
BUTTE          PTCLDY    50  30  46 NW18G26   29.88R
MULLAN PASS    CLOUDY    37  36  96 VRB5      29.96R WCI  33
* ESSEX        N/A       48  44  86 N/A        N/A
* LINCOLN      N/A       48  40  74 W4G15      N/A
* LOOKOUT PASS N/A       46  36  68 VRB1G6     N/A
* POLSON       N/A       54  36  51 S3G10      N/A
* RONAN APT    PTCLDY    55  37  51 SW11G16    N/A
* SEELEY LAKE  N/A       48  38  68 W6G14      N/A
* THOMP F APT  PTCLDY    45  41  86 VRB4G14    N/A
* YAAK HILL    N/A       55  36  49 NE1        N/A
$$

MTZ008-052>055-010100-
SOUTHWEST MONTANA
CITY           SKY/WX    TMP DP  RH WIND       PRES   REMARKS
BOZEMAN        CLOUDY    50  45  83 S12       29.83S
DILLON         CLOUDY    54  37  53 N9        29.85R
W YELLOWSTONE  LGT RAIN  41 N/A N/A SW3       29.87R VSB 2 1/2
* THREE FORKS  PTCLDY    55  34  45 N/A        N/A
* BOULDER HILL N/A       50  25  38 S6G16      N/A
* MONIDA PASS  N/A       43  38  83 NW9G17     N/A
* RAYNOLDS PAS N/A       41  30  65 SW3G11     N/A
* WHITEHALL    N/A       62  31  31 NW11G21    N/A
* WISE RIVER   N/A       49  27  43 W17G28     N/A
$$

MTZ009>010-012-014-046-048-049-054-010100-
EAST SLOPES AND CENTRAL MONTANA
CITY           SKY/WX    TMP DP  RH WIND       PRES   REMARKS
CUT BANK       CLOUDY    46  45  96 N21       29.81R
GREAT FALLS    RAIN      50  45  83 NW9       29.77R
HELENA         PTCLDY    57  34  42 W23G33    29.81R
MALMSTROM AFB  LGT RAIN  55  46  72 W15       29.78R
* CONRAD       CLOUDY    52  52 100 W9         N/A
* DEARBORN     N/A       58  38  47 S8G22      N/A
* EAST GLACIER N/A       46  39  77 W15G20     N/A
* MONARCH      N/A       45  40  83 NW11G16    N/A
* PENDROY      N/A       50  44  80 VRB13G25    N/A
* ROGERS PASS  N/A       45  36  71 SE12G23    N/A
* SAINT MARY   N/A       46  43  89 N5G10      N/A
* SWEET GRASS  N/A       46  46 100 NW21G26    N/A
* WHITE SULPH  N/A       53  38  57 NW8G16     N/A
$$

MTZ011-013-016-021-035-040-045-047-050-051-010100-
NORTH CENTRAL MONTANA
CITY           SKY/WX    TMP DP  RH WIND       PRES   REMARKS
HAVRE          CLOUDY    55  46  72 NW21G28   29.69R
LEWISTOWN      LGT RAIN  54  45  72 NW17G24   29.72R
* CHINOOK      MOCLDY    59  48  67 NW17G25   29.65R
* FORT BENTON  CLOUDY    55  46  72 NW15G21   29.74R
* CHESTER      N/A       51  44  77 NW17G26    N/A
* DENTON       N/A       50  47  89 NW20G32    N/A
* GEYSER       N/A       50  44  80 W16G27     N/A
* JUDITH GAP   N/A       54  38  55 NW12G19    N/A
* LOMA         N/A       58  46  65 NW17G25    N/A
$$

MTZ017>020-022>027-061-062-010100-
NORTHEAST MONTANA
CITY           SKY/WX    TMP DP  RH WIND       PRES   REMARKS
GLASGOW        CLOUDY    63  52  68 SW5       29.51F
GLENDIVE       CLOUDY    54  54 100 NE5       29.56R
JORDAN         CLOUDY    63  48  58 W9        29.56S
SIDNEY         CLOUDY    54  52  93 W3        29.54F
WOLF POINT     CLOUDY    57  54  90 SW3       29.53S
* BEAVER HILL  N/A       51  51 100 N/A        N/A
* CIRCLE       N/A       60  53  78 N/A        N/A
* LINDSAY DVD  N/A       53  53 100 NW7        N/A
* NAVAJO       N/A       53  53 100 E6         N/A
$$

MTZ028>042-056>058-010100-
SOUTHCENTRAL AND SOUTHEAST MONTANA
CITY           SKY/WX    TMP DP  RH WIND       PRES   REMARKS
BAKER          RAIN      54  54 100 NW12      29.54R VSB 3
BILLINGS       CLOUDY    61  41  48 W14       29.70R
LIVINGSTON     CLOUDY    50  45  83 SW14      29.79F
MILES CITY     CLOUDY    61  48  62 NW8       29.57R
* LAUREL APT   CLOUDY    61  39  44 W9         N/A
* ROUNDUP APT  CLOUDY    59  48  67 N/A        N/A
* ALZADA       N/A       56  48  75 W12        N/A
* HYSHAM       N/A       56  42  60 W6G13      N/A
* LAME DEER    N/A       54  44  69 W9G21      N/A
* REED POINT   N/A       58  37  46 W17G27     N/A
* ROSCOE HILL  N/A       54  27  35 W4G13      N/A
$$

REGIONAL REPORTS...DAKOTAS
CITY           SKY/WX    TMP DP  RH WIND       PRES   REMARKS
WILLISTON      CLOUDY    54  52  93 NE5       29.53S
DICKINSON      CLOUDY    52  50  93 N8        29.46S
BEACH          LGT RAIN  50  50 100 NW6       29.53S
CROSBY         N/A      N/A N/A N/A N/A        N/A
TIOGA          FOG       48  48 100 E7        29.56F VSB 1 1/2
WATFORD CITY   FOG       50  50 100 E6        29.50F VSB 2 1/2
BISMARCK       CLOUDY    55  54  96 E20G31    29.38F
GRAND FORKS    CLOUDY    59  46  62 SE15      29.65F
FARGO          CLOUDY    59  48  67 SE17G26   29.64F
BUFFALO SD     CLOUDY    55  52  90 W25G31    29.46R
RAPID CITY     MOCLDY    64  45  50 W8        29.60R
$$

REGIONAL REPORTS...WYOMING/IDAHO/WASHINGTON
CITY           SKY/WX    TMP DP  RH WIND       PRES   REMARKS
GILLETTE       CLOUDY    55  45  69 NW8       29.69R
SHERIDAN       CLOUDY    57  43  60 NW16G26   29.70R
CODY           CLOUDY    54  43  67 NE5       29.76R
YELLOWSTONE LA MOCLDY    39  37  93 CALM      29.91S
SALMON         MOCLDY    54  36  51 N7        29.91R
MULLAN PASS    CLOUDY    37  36  96 VRB5      29.96S WCI  33
SAND POINT     MOCLDY    54  45  72 CALM      29.89S
SPOKANE        MOCLDY    59  37  44 W10G17    29.91R
$$

REGIONAL REPORTS...ALBERTA
CITY           SKY/WX    TMP DP  RH WIND       PRES   REMARKS
CALGARY        MOCLDY    52  39  61 W14       29.81R
LETHBRIDGE     LGT RAIN  48  45  89 W9G20     29.82R
MEDICINE HAT   CLOUDY    52  45  77 NW14G24   29.72R
EDMONTON       MOCLDY    55  36  49 NW22G31   29.74R
WATERTON GATE  N/A       41  37  86 NW3        N/A
CARDSTON       N/A       45  43  93 NW9        N/A
MILK RIVER     N/A       48  43  83 NW16       N/A
$$

REGIONAL REPORTS...SASKATCHEWAN
CITY           SKY/WX    TMP DP  RH WIND       PRES   REMARKS
SWIFT CURRENT  CLOUDY    54  48  80 NW21      29.58R
MOOSE JAW      CLOUDY    59  54  84 E7        29.51F
REGINA         LGT RAIN  52  50  93 SE9       29.55F
VAL MARIE      N/A       59  48  67 N16        N/A
ASSINIBOIA     N/A       57  50  78 NW12       N/A
CORONACH       N/A       57  52  83 SE9        N/A

$$



USA.gov is the U.S. government's official web portal to all federal, state and local government web resources and services.